• Processing (Info)

  • MPEC 2013-M16 : 2012 VF37

    The following Minor Planet Electronic Circular may be linked-to from your own Web pages, but must not otherwise be redistributed electronically.

    A form allowing access to any MPEC is at the bottom of this page.


    Read MPEC 2013-M15 Read MPEC 2013-M17


    M.P.E.C. 2013-M16                                Issued 2013 June 17, 23:22 UT
    
         The Minor Planet Electronic Circulars contain information on unusual
             minor planets and routine data on comets.  They are published
       on behalf of Commission 20 of the International Astronomical Union by the
              Minor Planet Center, Smithsonian Astrophysical Observatory,
                              Cambridge, MA 02138, U.S.A.
    
                 Prepared using the Tamkin Foundation Computer Network
    
                                  MPC@CFA.HARVARD.EDU
                URL http://www.minorplanetcenter.net/    ISSN 1523-6714
    
                                       2012 VF37
    
                               Revision to MPEC 2012-V69
    
    Additional Observations:
         K12V37F  C2013 05 20.34969 17 00 11.91 -19 18 37.9                oEM016711
         K12V37F  C2013 05 20.35317 17 00 11.29 -19 18 37.2                oEM016711
         K12V37F IC2013 05 20.37728 17 00 08.21 -19 18 39.4                oEM016711
         K12V37F KC2013 05 21.44268 16 57 54.11 -19 21 16.9          21.8 RoEM016291
         K12V37F KC2013 05 21.44946 16 57 53.24 -19 21 17.9          21.8 RoEM016291
         K12V37F KC2013 05 31.30400 16 38 30.61 -19 40 30.5                oEM016291
         K12V37F KC2013 05 31.32163 16 38 28.55 -19 40 31.4                oEM016291
    
    Observer details:
    291 LPL/Spacewatch II.  Observers J. V. Scotti, T. H. Bressi.  1.8-m f/2.7
        reflector + CCD.
    711 McDonald Observatory.  Observers A. J. Riddle, J. G. Ries.  Measurer
        J. G. Ries.  2.1-m reflector + CCD + focal reducer.
    
    First and last observations above in comparison with prediction:
    Residuals in seconds of arc, reference and Delta-T
    130520 711  3.1+  0.9-    130531 291  0.8-  1.8+    MPO258430   +0.00015 day
    
    Orbital elements:
    2012 VF37                                           PHA, Earth MOID = 0.0141 AU
    Epoch 2013 Apr. 18.0 TT = JDT 2456400.5                 MPC
    M  20.28268              (2000.0)            P               Q
    n   0.25565174     Peri.   58.60180     -0.77624046     -0.62469782
    a   2.4586887      Node    82.59895     +0.54545925     -0.73299851
    e   0.6535432      Incl.    4.90971     +0.31610910     -0.26919475
    P   3.86           H   21.0           G   0.15           U   3
    Residuals in seconds of arc
    121107 F51  0.1-  0.0     121126 568  0.1+  0.1-    121211 A24  0.1-  0.4+
    121107 F51  0.1-  0.0     121126 568  0.2+  0.1-    121211 A24  0.5+  0.5+
    121107 F51  0.0   0.1+    121126 568  0.1+  0.1-    121211 A24  0.2-  0.4+
    121107 F51  0.1-  0.1+    121201 H21  0.0   0.0     121211 A24  0.2+  0.5+
    121108 568  0.1+  0.1-    121201 H21  0.1+  0.1+    121211 A24  0.3+  0.6+
    121108 568  0.1+  0.1-    121201 H21  0.1-  0.1+    121211 C91  0.1-  0.4+
    121108 568  0.1+  0.1-    121201 H21  0.0   0.1+    121211 C91  0.3+  0.1-
    121108 F51  0.1+  0.1-    121202 703  0.1-  0.5+    121211 C91  0.4-  0.0
    121108 F51  0.1+  0.0     121202 703  0.7-  0.3-    121211 A24  0.3-  0.8+
    121109 H21  0.4+  0.1-    121202 703  0.8-  0.6+    121211 A24  0.3-  0.7+
    121109 H21  0.4+  0.0     121202 703  0.1+  0.9+    121211 A24  0.0   0.6+
    121109 H21  0.6+  0.1+    121203 718  0.2-  0.1+    121211 A24  0.0   0.5+
    121111 J95  0.0   0.2-    121203 718  0.0   0.1-    121212 A24  0.1-  0.6+
    121111 J95  0.9+  0.6-    121203 718  0.1+  0.4+    121212 A24  0.0   0.7+
    121111 J95  0.1-  0.2-    121203 A24  0.2-  0.4+    121212 A24  0.1-  0.3-
    121112 291  0.0   0.3+    121203 A24  0.5+  0.1+    121212 A24  0.4+  0.4+
    121112 291  0.5-  0.0     121203 A24  0.3+  0.8+    121212 130  0.1-  0.0
    121112 291  0.6-  0.1-    121204 A24  0.3+  0.8-    121212 130  0.1-  0.0
    121114 291  0.4-  0.1+    121204 A24  1.5+  0.7+    121212 130  0.3+  0.1+
    121114 291  0.1-  0.1+    121204 H06  0.5-  0.5+    121212 130  0.5-  0.1+
    121114 291  0.4-  0.1+    121204 H06  0.6-  0.2+    121213 H23  1.4+  0.5-
    121114 118  0.5-  0.2-    121204 H06  0.9-  0.4+    121213 H23  1.3+  0.1-
    121114 118  0.4+  0.1+    121204 H06  1.0-  0.3+    121213 H21  0.1+  0.2-
    121114 118  0.2+  0.2+    121204 H06  0.9-  0.2-    121213 H21  0.1+  0.2-
    121114 118  0.0   0.3+    121204 H06  0.0   0.1-    121213 H23  1.3+  0.3-
    121114 B67  0.5-  0.3+    121204 718  0.1+  0.3+    121213 H21  0.1+  0.2-
    121114 B67  0.4-  0.0     121204 H06  0.7+  0.6-    121213 H21  0.2+  0.2-
    121114 B67  0.6-  0.1+    121204 718  0.0   0.1+    121213 H21  0.1+  0.3-
    121117 204  0.3+  0.1+    121204 718  0.2+  0.9+    121213 H21  0.0   0.2-
    121117 204  0.3+  0.3-    121204 291  0.0   0.1+    121213 I42  0.1+  0.5+
    121117 H21  0.2-  0.3+    121204 291  0.1-  0.1-    121213 I42  0.3+  0.0
    121117 H45  0.4+  0.8+    121204 291  0.3-  0.0     121214 H21  0.1+  0.0
    121117 H45  0.0   0.2+    121204 C77  0.3-  0.2+    121214 H21  0.0   0.0
    121117 H45  0.3+  0.2+    121204 C77  0.1-  0.2+    121214 H21  0.0   0.1-
    121117 H21  0.3+  0.2+    121204 C77  0.2-  0.5-    121214 H21  0.0   0.0
    121117 H45  0.5+  0.3+    121205 703  1.1-  0.6+    121214 089  0.1+  0.2+
    121117 H45  0.3+  0.2-    121205 703  0.8-  0.4+    121214 089  0.2+  0.1+
    121117 H45  0.5-  0.1-    121205 703  0.7-  0.6+    121214 089  0.0   0.2+
    121117 H21  0.2-  0.2+    121205 703  0.7-  0.3+    121214 089  0.5-  0.1-
    121117 H21  0.4+  0.0     121206 291  0.2-  0.1+    121214 089  0.2-  0.0
    121117 291  0.8-  0.5+    121206 291  0.4-  0.0     121214 089  0.3+  0.1+
    121117 291  0.2-  0.1+    121206 291  0.3-  0.0     121214 089  0.1-  0.7+
    121118 H21  0.2+  0.2-    121206 704  1.0-  0.8+    121214 J04  0.1+  0.1-
    121118 H21  0.3+  0.1+    121206 704  1.3-  0.7+    121214 J04  0.1+  0.1-
    121118 H21  0.4+  0.3-    121206 704  0.2-  0.6+    121214 J04  0.0   0.1-
    121118 H21  0.3+  0.2-    121206 704 (1.5-  0.4-)   121218 H45  0.2-  0.2+
    121120 033  0.5-  0.3+    121206 704 (1.0-  1.7+)   121218 H45  0.0   0.1-
    121120 033  0.4+  0.4+    121206 C27  0.2+  0.1+    121218 H45  0.1-  0.1+
    121120 033  0.6-  0.2-    121206 C27  0.2+  0.1-    121218 H45  0.0   0.2+
    121120 033  0.3+  0.0     121206 C27  0.4-  0.5-    121218 H45  0.1+  0.0
    121120 703  0.7+  0.0     121206 C27  0.2+  0.6-    121218 H45  0.1-  0.2+
    121120 703  0.5+  1.3-    121206 C27  1.2-  0.3+    121218 H45  0.1-  0.1-
    121120 H45  0.6+  0.2-    121207 291  0.3-  0.0     121218 H45  0.2-  0.1+
    121120 H45  0.9+  0.2-    121207 291  0.3-  0.0     121218 H45  0.0   0.2+
    121120 H45  0.1-  0.1-    121207 291  0.2-  0.1+    121218 H45  0.1+  0.1+
    121120 703  0.2+  0.3-    121208 448  0.2+  0.1-    121219 H21  0.1+  0.0
    121120 H45  0.1-  0.0     121208 448  0.1+  0.2-    121219 H21  0.1+  0.1+
    121120 H45  0.9+  0.0     121208 448  0.1-  0.3-    121219 H21  0.1+  0.1+
    121120 H45  0.8+  0.1-    121208 448  0.0   0.4-    121219 H21  0.1+  0.0
    121120 703  0.2-  0.8-    121208 448  0.0   0.4-    121219 H21  0.2+  0.0
    121120 291  0.0   0.2+    121208 033  0.9-  0.4+    121219 H21  0.2+  0.1+
    121120 291  0.3-  0.2+    121208 033  0.0   0.0     121220 703  0.2+  0.2-
    121120 291  0.0   0.1+    121208 033  0.8-  0.6+    121220 703  0.2+  0.2-
    121121 H45  0.4+  0.1-    121208 033  0.2+  0.2+    121220 703  0.2-  0.1-
    121121 H45  1.0+  0.1+    121208 I76  0.2-  0.1+    121220 703  0.3-  0.2-
    121121 H45  0.4+  0.1+    121208 I76  0.4+  0.0     121221 H23 (2.0-  0.2+)
    121121 H45  0.2+  0.1+    121208 I76  0.4+  0.0     121221 H23  0.8-  0.5-
    121121 H45  0.2+  0.1+    121208 I76  0.5-  0.0     121221 H23  0.1-  0.7-
    121121 H45  0.3+  0.2+    121209 J16  0.5-  0.6+    121224 300  0.3-  0.1-
    121122 H21  0.4-  0.4-    121209 J16  0.0   0.8+    121224 300  0.3+  0.1+
    121122 H21  0.9-  0.3-    121209 J16  0.6-  0.3+    121224 300  0.3+  0.6-
    121122 H21  0.1-  0.1-    121210 A24  0.2+  0.3+    121224 300  0.2+  0.0
    121122 H21  0.2+  0.1+    121210 A24  0.1-  0.5+    121224 300  0.3+  0.1-
    121123 G84  0.1+  0.1-    121210 A24  0.1+  0.7+    121224 300  0.6+  0.1-
    121123 G84  0.1+  0.0     121210 A24 (1.5-  0.6+)   121228 160  0.4-  0.3+
    121123 291  0.1-  0.2+    121210 A24  0.8+  0.8+    121228 160  0.3-  0.3+
    121123 291  0.1-  0.1+    121210 A24  0.1+  0.1+    121228 160  0.3+  0.1+
    121123 291  0.2-  0.0     121210 F51  0.1-  0.1-    121228 160  0.8+  0.6-
    121124 291  0.0   0.0     121210 F51  0.1-  0.0     121228 160  0.5+  0.1+
    121124 291  0.0   0.2+    121210 F51  0.1-  0.1-    121228 160  1.0-  0.7-
    121124 291  0.2-  0.0     121210 F51  0.1-  0.1-    121229 204  0.1+  0.1+
    121124 H21  0.3-  0.0     121210 B75  0.3-  0.0     121229 204  0.5-  0.8-
    121124 H21  0.0   0.0     121210 B75  0.0   0.2-    130520 711  2.5+  0.8-
    121124 H21  0.3-  0.1-    121210 B75  0.1-  0.2-    130520 711  0.2+  0.4+
    121125 691  0.3-  0.3-    121210 B75  0.3-  0.3+    130520 711  1.2+  1.7+
    121125 691  0.4-  0.0     121210 B75  0.0   0.3-    130521 291  0.1-  0.5+
    121125 691  0.4-  0.1-    121211 A24  0.0   0.6+    130521 291  0.0   0.4+
    121125 291  0.0   0.3-    121211 A24  0.2+  0.5+    130531 291  0.2-  1.1+
    121125 291  0.1-  0.3-    121211 A24  0.3-  0.3+    130531 291  1.2-  1.9+
    
    Ephemeris:
    2012 VF37                a,e,i = 2.46, 0.65, 5                   q = 0.8518
    Date    TT    R. A. (2000) Decl.     Delta      r     Elong.  Phase     V
    2013 05 18    17 05 09.8 -19 12 17   0.6830  1.6689   159.7    12.1    22.0
    ...
    2013 06 02    16 35 29.3 -19 42 57   0.7912  1.8049   177.4     1.5    22.0
    ...
    2013 06 10    16 22 52.8 -19 53 28   0.8706  1.8756   168.0     6.4    22.6
    ...
    2013 06 16    16 15 24.1 -20 00 40   0.9397  1.9278   160.7    10.1    22.9
    2013 06 17    16 14 19.6 -20 01 54   0.9520  1.9364   159.5    10.6    23.0
    2013 06 18    16 13 18.0 -20 03 08   0.9645  1.9450   158.3    11.1    23.1
    ...
    2013 06 24    16 08 09.1 -20 11 07   1.0436  1.9961   151.4    14.1    23.4
    ...
    2013 07 02    16 03 49.1 -20 23 39   1.1594  2.0631   142.8    17.3    23.8
    ...
    2013 07 17    16 02 28.6 -20 54 20   1.4040  2.1848   128.3    21.4    24.5
    
    A. U. Tomatic                (C) Copyright 2013 MPC           M.P.E.C. 2013-M16
    

    Read MPEC 2013-M15 Read MPEC 2013-M17


    MPEC number:

    Enter an MPEC number in one of the following forms:

    • 1997-B01 (the full form)
    • J97B01 (the packed version of the full form)
    • B01 (the abbreviated form)